COMPASS
1 32787U 08021E 12087.67655182 .00001786 00000-0 22231-3 0 02635
2 32787 097.8073 150.8020 0014744 331.1486 028.8933 14.83670127211720
AAUSAT2
1 32788U 08021F 12087.66315361 .00001341 00000-0 16738-3 0 02527
2 32788 097.8113 151.1267 0014081 332.6351 027.4138 14.83961187211747
DO-64
1 32789U 08021G 12087.71889867 .00002262 00000-0 26961-3 0 02679
2 32789 097.8195 152.9102 0013905 328.2281 031.8097 14.85217948211780
CO-66
1 32791U 08021J 12087.63568486 .00001099 00000-0 14105-3 0 02566
2 32791 097.8080 150.5641 0015075 331.1342 028.8999 14.83145540211658
RS-30
1 32953U 08025A 12088.23826990 .00000010 00000-0 00000 0 0 6486
2 32953 082.5068 345.4821 0019349 121.5970 238.7006 12.43021674174504
TACSAT-3
1 35001U 09028A 12087.74583042 .00202185 00000-0 78005-3 0 09259
2 35001 040.4457 214.0655 0011651 026.6683 333.4743 15.85777844161554
PHARMSAT
1 35002U 09028B 12088.57152688 .00066783 00000-0 53708-3 0 8401
2 35002 040.4638 217.7335 0002903 275.8509 084.1951 15.69961702161591
METEOR-M
1 35865U 09049A 12088.22357183 -.00000009 00000-0 15790-4 0 2730
2 35865 098.6640 144.0329 0001745 301.5027 058.5978 14.21858194131099
RS-38
1 35869U 09049E 12088.18610434 .00000023 00000-0 30104-4 0 2809
2 35869 098.6598 144.0045 0003823 292.0952 067.9821 14.22060558131103
JUGNU
1 37839U 11058B 12087.48076735 .00000619 00000-0 19019-3 0 1163
2 37839 019.9603 133.2274 0019401 043.4242 316.7688 14.12037981 23680
SRMSAT
1 37841U 11058D 12088.41487279 .00000264 00000-0 00000 0 0 1183
2 37841 019.9728 130.8565 0011675 023.4267 336.6693 14.10124577 23770
RAX-2
1 37853U 11061D 12087.97354212 .00002471 00000-0 20633-3 0 01449
2 37853 101.7172 091.2252 0249871 222.2380 135.9333 14.79251602022398
AUBIESAT
1 37854U 11061E 12088.48872981 .00002439 00000-0 20063-3 0 1367
2 37854 101.7166 092.1228 0251414 219.9733 138.2721 14.79579933 22450
HRBE
1 37855U 11061F 12088.56306375 .00002337 00000-0 19329-3 0 1355
2 37855 101.7197 092.2077 0251449 219.9600 138.2860 14.79468373 22469
RS-39
1 38051U 11062C 12088.44815382 .00006591 00000-0 29056-3 0 1933
2 38051 051.6419 184.1942 0011131 105.4282 349.3903 15.22928230 9669
E-STAR
1 38079U 12006C 12088.28256558 .00034063 00000-0 85095-3 0 1084
2 38079 069.4919 139.8433 0771307 349.6147 008.9770 14.08655466 6166
GOLIAT
1 38085U 12006J 12088.50959210 .00032289 00000-0 83716-3 0 1065
2 38085 069.4865 139.3775 0770521 349.2869 009.2655 14.08074427 6192
